OKEAN-3

Last updated on Wed Sep 17 2025 00:02:15 GMT+0000 (Coordinated Universal Time)

1 21397U 91039A 25259.44166149 .00003102 00000+0 22645-3 0 9999 2 21397 82.5190 145.4904 0013825 198.3068 161.7662 15.03283923838846
UTC large
Height (km)
Speed (km/s)
/
Latitude / Longitude
Inclination (degrees)
Orbital Period (minutes)
Azimuth
Elevation
Range (km)
Doppler Factor

Next 0 passes for location: London (51.5072 / 0.1276)

Sorry there are no passes over London.